Location: Newark
(45.9167°N, 5.5000°E)
Time: 14:36:10
(UTC+00:00)

N. Korean satellite - Pass Details

Date: 03 February 2020
Orbit: 456 x 505 km, 97.2° (Epoch: 29 February)

Event Time Altitude Azimuth Distance (km) Brightness Sun altitude
Rises 17:10:49 0° 191° (S) 2,466 10.6 -4.9°
Reaches altitude 10° 17:13:02 10° 204° (SSW) 1,601 9.9 -5.3°
Maximum altitude 17:16:01 28° 264° (W) 910 9.0 -5.8°
Drops below altitude 10° 17:19:04 10° 325° (NW) 1,631 9.5 -6.3°
Sets 17:21:21 0° 338° (NNW) 2,522 10.3 -6.7°
